Time,TemperatureF,DewpointF,PressureIn,WindDirection,WindDirectionDegrees,WindSpeedMPH,WindSpeedGustMPH,Humidity,HourlyPrecipIn,Conditions,Clouds,dailyrainin,SoftwareType,DateUTC
2013-02-07 00:00:00,50.1,37.6,29.96,SSE,158,4.0,8.0,62,0.00,,,0.00,VWS V14.00,2013-02-07 06:00:00,
2013-02-07 00:05:00,50.1,37.6,29.96,SSE,158,4.0,8.0,62,0.00,,,0.00,VWS V14.00,2013-02-07 06:05:00,
2013-02-07 00:10:00,50.1,37.6,29.96,SSE,158,5.0,9.0,62,0.00,,,0.00,VWS V14.00,2013-02-07 06:10:00,
2013-02-07 00:15:00,50.0,37.5,29.96,SSE,158,3.0,8.0,62,0.00,,,0.00,VWS V14.00,2013-02-07 06:15:00,
2013-02-07 00:20:00,50.0,37.5,29.96,SSE,158,3.0,9.0,62,0.00,,,0.00,VWS V14.00,2013-02-07 06:20:00,
2013-02-07 00:25:00,50.0,37.5,29.96,SSE,158,3.0,6.0,62,0.00,,,0.00,VWS V14.00,2013-02-07 06:25:00,
2013-02-07 00:30:00,49.9,37.4,29.95,SSE,158,6.0,10.0,62,0.00,,,0.00,VWS V14.00,2013-02-07 06:30:00,
2013-02-07 00:35:00,49.9,37.4,29.95,SSE,158,5.0,8.0,62,0.00,,,0.00,VWS V14.00,2013-02-07 06:35:00,
2013-02-07 00:40:00,49.8,37.7,29.95,SE,135,2.0,8.0,63,0.00,,,0.00,VWS V14.00,2013-02-07 06:40:00,
2013-02-07 00:45:00,49.7,37.6,29.95,SSE,158,3.0,6.0,63,0.00,,,0.00,VWS V14.00,2013-02-07 06:45:00,
2013-02-07 00:50:00,49.7,37.6,29.95,SE,135,3.0,6.0,63,0.00,,,0.00,VWS V14.00,2013-02-07 06:50:00,
2013-02-07 00:55:00,49.6,37.5,29.95,SSE,158,2.0,8.0,63,0.00,,,0.00,VWS V14.00,2013-02-07 06:55:00,
2013-02-07 01:00:00,49.6,37.5,29.94,SSE,158,5.0,12.0,63,0.00,,,0.00,VWS V14.00,2013-02-07 07:00:00,
2013-02-07 01:05:00,49.6,37.5,29.94,SSE,158,5.0,12.0,63,0.00,,,0.00,VWS V14.00,2013-02-07 07:05:00,
2013-02-07 01:10:00,49.6,37.5,29.94,SSE,158,5.0,10.0,63,0.00,,,0.00,VWS V14.00,2013-02-07 07:10:00,
2013-02-07 01:15:00,49.5,37.8,29.93,SSE,158,5.0,12.0,64,0.00,,,0.00,VWS V14.00,2013-02-07 07:15:00,
2013-02-07 01:20:00,49.4,37.8,29.93,SSE,158,4.0,10.0,64,0.00,,,0.00,VWS V14.00,2013-02-07 07:20:00,
2013-02-07 01:25:00,49.3,37.7,29.93,South,180,3.0,8.0,64,0.00,,,0.00,VWS V14.00,2013-02-07 07:25:00,
2013-02-07 01:30:00,49.2,38.0,29.93,SSE,158,4.0,8.0,65,0.00,,,0.00,VWS V14.00,2013-02-07 07:30:00,
2013-02-07 01:35:00,49.1,37.9,29.93,SSE,158,3.0,6.0,65,0.00,,,0.00,VWS V14.00,2013-02-07 07:35:00,
2013-02-07 01:40:00,49.0,37.8,29.92,SSE,158,3.0,7.0,65,0.00,,,0.00,VWS V14.00,2013-02-07 07:40:00,
2013-02-07 01:45:00,48.9,38.1,29.93,South,180,3.0,7.0,66,0.00,,,0.00,VWS V14.00,2013-02-07 07:45:00,
2013-02-07 01:50:00,48.8,38.0,29.93,SSW,202,1.0,5.0,66,0.00,,,0.00,VWS V14.00,2013-02-07 07:50:00,
2013-02-07 01:55:00,48.8,38.0,29.92,South,180,1.0,4.0,66,0.00,,,0.00,VWS V14.00,2013-02-07 07:55:00,
2013-02-07 02:00:00,48.7,37.9,29.92,SSE,158,3.0,7.0,66,0.00,,,0.00,VWS V14.00,2013-02-07 08:00:00,
2013-02-07 02:05:00,48.7,37.9,29.92,SSE,158,3.0,9.0,66,0.00,,,0.00,VWS V14.00,2013-02-07 08:05:00,
2013-02-07 02:10:00,48.6,38.5,29.93,South,180,3.0,7.0,68,0.00,,,0.00,VWS V14.00,2013-02-07 08:10:00,
2013-02-07 02:15:00,48.1,39.9,29.93,South,180,3.0,7.0,73,0.04,,,0.04,VWS V14.00,2013-02-07 08:15:00,
2013-02-07 02:20:00,47.5,40.7,29.92,South,180,3.0,5.0,77,0.05,,,0.05,VWS V14.00,2013-02-07 08:20:00,
2013-02-07 02:25:00,46.8,40.6,29.92,SSE,158,2.0,5.0,79,0.06,,,0.06,VWS V14.00,2013-02-07 08:25:00,
2013-02-07 02:30:00,46.2,40.7,29.92,SSE,158,4.0,10.0,81,0.07,,,0.07,VWS V14.00,2013-02-07 08:30:00,
2013-02-07 02:35:00,45.9,40.4,29.92,SSE,158,3.0,7.0,81,0.07,,,0.07,VWS V14.00,2013-02-07 08:35:00,
2013-02-07 02:40:00,45.7,40.5,29.92,SSE,158,1.0,4.0,82,0.07,,,0.07,VWS V14.00,2013-02-07 08:40:00,
2013-02-07 02:45:00,45.6,40.7,29.92,South,180,0.0,1.0,83,0.07,,,0.07,VWS V14.00,2013-02-07 08:45:00,
2013-02-07 02:50:00,45.5,41.0,29.92,South,180,0.0,0.0,84,0.07,,,0.07,VWS V14.00,2013-02-07 08:50:00,
2013-02-07 02:55:00,45.3,41.1,29.92,SSE,158,0.0,3.0,85,0.07,,,0.07,VWS V14.00,2013-02-07 08:55:00,
2013-02-07 03:00:00,45.1,41.2,29.91,SE,135,2.0,4.0,86,0.07,,,0.07,VWS V14.00,2013-02-07 09:00:00,
2013-02-07 03:05:00,44.9,41.3,29.91,SE,135,1.0,6.0,87,0.07,,,0.07,VWS V14.00,2013-02-07 09:05:00,
2013-02-07 03:10:00,44.7,40.8,29.91,SSE,158,2.0,6.0,86,0.07,,,0.07,VWS V14.00,2013-02-07 09:10:00,
2013-02-07 03:15:00,44.8,40.6,29.91,SSE,158,2.0,5.0,85,0.07,,,0.07,VWS V14.00,2013-02-07 09:15:00,
2013-02-07 03:20:00,44.8,40.9,29.91,SSE,158,2.0,4.0,86,0.03,,,0.07,VWS V14.00,2013-02-07 09:20:00,
2013-02-07 03:25:00,44.7,40.5,29.91,SSE,158,1.0,4.0,85,0.02,,,0.07,VWS V14.00,2013-02-07 09:25:00,
2013-02-07 03:30:00,44.6,40.7,29.91,SSE,158,3.0,6.0,86,0.01,,,0.07,VWS V14.00,2013-02-07 09:30:00,
2013-02-07 03:35:00,44.5,40.6,29.91,SE,135,2.0,7.0,86,0.00,,,0.07,VWS V14.00,2013-02-07 09:35:00,
2013-02-07 03:40:00,44.5,40.9,29.91,SE,135,0.0,0.0,87,0.00,,,0.07,VWS V14.00,2013-02-07 09:40:00,
2013-02-07 03:45:00,44.5,40.9,29.92,SE,135,0.0,0.0,87,0.00,,,0.07,VWS V14.00,2013-02-07 09:45:00,
2013-02-07 03:50:00,44.4,40.8,29.91,SE,135,0.0,0.0,87,0.00,,,0.07,VWS V14.00,2013-02-07 09:50:00,
2013-02-07 03:55:00,44.3,41.0,29.91,South,180,1.0,5.0,88,0.00,,,0.07,VWS V14.00,2013-02-07 09:55:00,
2013-02-07 04:00:00,44.3,41.0,29.91,SSE,158,1.0,3.0,88,0.00,,,0.07,VWS V14.00,2013-02-07 10:00:00,
2013-02-07 04:05:00,44.4,41.1,29.91,SSE,158,4.0,7.0,88,0.00,,,0.07,VWS V14.00,2013-02-07 10:05:00,
2013-02-07 04:10:00,44.7,41.1,29.91,SSE,158,4.0,7.0,87,0.00,,,0.07,VWS V14.00,2013-02-07 10:10:00,
2013-02-07 04:15:00,44.9,41.3,29.91,South,180,3.0,7.0,87,0.00,,,0.07,VWS V14.00,2013-02-07 10:15:00,
2013-02-07 04:20:00,45.0,41.4,29.91,South,180,2.0,5.0,87,0.01,,,0.08,VWS V14.00,2013-02-07 10:20:00,
2013-02-07 04:25:00,45.0,41.7,29.90,SSE,158,4.0,8.0,88,0.01,,,0.08,VWS V14.00,2013-02-07 10:25:00,
2013-02-07 04:30:00,45.1,41.5,29.90,SSE,158,6.0,11.0,87,0.01,,,0.08,VWS V14.00,2013-02-07 10:30:00,
2013-02-07 04:35:00,45.4,41.5,29.90,SSE,158,7.0,13.0,86,0.01,,,0.08,VWS V14.00,2013-02-07 10:35:00,
2013-02-07 04:40:00,45.6,41.7,29.90,SSE,158,7.0,13.0,86,0.02,,,0.09,VWS V14.00,2013-02-07 10:40:00,
2013-02-07 04:45:00,45.6,41.7,29.90,SSE,158,5.0,9.0,86,0.02,,,0.09,VWS V14.00,2013-02-07 10:45:00,
2013-02-07 04:50:00,45.6,41.7,29.90,South,180,3.0,6.0,86,0.02,,,0.09,VWS V14.00,2013-02-07 10:50:00,
2013-02-07 04:55:00,45.4,41.8,29.91,South,180,2.0,6.0,87,0.03,,,0.10,VWS V14.00,2013-02-07 10:55:00,
2013-02-07 05:00:00,45.4,41.8,29.90,SSE,158,3.0,9.0,87,0.04,,,0.11,VWS V14.00,2013-02-07 11:00:00,
2013-02-07 05:05:00,45.3,41.7,29.91,South,180,2.0,5.0,87,0.05,,,0.12,VWS V14.00,2013-02-07 11:05:00,
2013-02-07 05:10:00,45.2,41.9,29.90,South,180,3.0,7.0,88,0.06,,,0.13,VWS V14.00,2013-02-07 11:10:00,
2013-02-07 05:15:00,45.2,41.9,29.90,South,180,3.0,5.0,88,0.07,,,0.14,VWS V14.00,2013-02-07 11:15:00,
2013-02-07 05:20:00,45.1,41.8,29.90,SSE,158,3.0,6.0,88,0.07,,,0.14,VWS V14.00,2013-02-07 11:20:00,
2013-02-07 05:25:00,45.1,42.1,29.90,SSE,158,4.0,7.0,89,0.07,,,0.15,VWS V14.00,2013-02-07 11:25:00,
2013-02-07 05:30:00,45.2,42.2,29.90,SSE,158,4.0,7.0,89,0.07,,,0.15,VWS V14.00,2013-02-07 11:30:00,
2013-02-07 05:35:00,45.2,42.2,29.90,SSE,158,3.0,7.0,89,0.07,,,0.15,VWS V14.00,2013-02-07 11:35:00,
2013-02-07 05:40:00,45.2,42.2,29.90,South,180,3.0,5.0,89,0.07,,,0.15,VWS V14.00,2013-02-07 11:40:00,
2013-02-07 05:45:00,45.2,41.9,29.90,South,180,3.0,7.0,88,0.07,,,0.16,VWS V14.00,2013-02-07 11:45:00,
2013-02-07 05:50:00,45.2,41.9,29.90,SSE,158,3.0,7.0,88,0.07,,,0.16,VWS V14.00,2013-02-07 11:50:00,
2013-02-07 05:55:00,45.2,41.9,29.89,SSE,158,3.0,7.0,88,0.07,,,0.16,VWS V14.00,2013-02-07 11:55:00,
2013-02-07 06:00:00,45.2,41.9,29.90,SSE,158,4.0,7.0,88,0.06,,,0.16,VWS V14.00,2013-02-07 12:00:00,
2013-02-07 06:05:00,45.2,42.2,29.90,South,180,5.0,7.0,89,0.07,,,0.18,VWS V14.00,2013-02-07 12:05:00,
2013-02-07 06:10:00,45.2,42.2,29.90,South,180,4.0,7.0,89,0.07,,,0.19,VWS V14.00,2013-02-07 12:10:00,
2013-02-07 06:15:00,45.1,42.3,29.89,South,180,3.0,6.0,90,0.06,,,0.19,VWS V14.00,2013-02-07 12:15:00,
2013-02-07 06:20:00,45.1,42.3,29.89,South,180,4.0,6.0,90,0.05,,,0.19,VWS V14.00,2013-02-07 12:20:00,
2013-02-07 06:25:00,45.0,42.2,29.89,South,180,4.0,7.0,90,0.05,,,0.19,VWS V14.00,2013-02-07 12:25:00,
2013-02-07 06:30:00,45.1,42.3,29.89,South,180,4.0,7.0,90,0.04,,,0.19,VWS V14.00,2013-02-07 12:30:00,
2013-02-07 06:35:00,45.1,42.3,29.89,South,180,3.0,7.0,90,0.04,,,0.19,VWS V14.00,2013-02-07 12:35:00,
2013-02-07 06:40:00,45.1,42.3,29.89,South,180,4.0,9.0,90,0.05,,,0.20,VWS V14.00,2013-02-07 12:40:00,
2013-02-07 06:45:00,45.2,42.5,29.89,South,180,4.0,7.0,90,0.05,,,0.20,VWS V14.00,2013-02-07 12:45:00,
2013-02-07 06:50:00,45.2,42.5,29.89,South,180,5.0,7.0,90,0.04,,,0.20,VWS V14.00,2013-02-07 12:50:00,
2013-02-07 06:55:00,45.2,42.5,29.89,South,180,4.0,8.0,90,0.04,,,0.20,VWS V14.00,2013-02-07 12:55:00,
2013-02-07 07:00:00,45.2,42.7,29.89,South,180,4.0,7.0,91,0.05,,,0.21,VWS V14.00,2013-02-07 13:00:00,
2013-02-07 07:05:00,45.2,42.7,29.89,South,180,3.0,7.0,91,0.05,,,0.21,VWS V14.00,2013-02-07 13:05:00,
2013-02-07 07:10:00,45.1,42.3,29.88,SSE,158,2.0,5.0,90,0.04,,,0.22,VWS V14.00,2013-02-07 13:10:00,
2013-02-07 07:15:00,45.1,42.6,29.89,South,180,4.0,7.0,91,0.03,,,0.22,VWS V14.00,2013-02-07 13:15:00,
2013-02-07 07:20:00,45.0,42.5,29.89,South,180,3.0,7.0,91,0.03,,,0.22,VWS V14.00,2013-02-07 13:20:00,
2013-02-07 07:25:00,44.9,42.4,29.89,South,180,5.0,8.0,91,0.03,,,0.22,VWS V14.00,2013-02-07 13:25:00,
2013-02-07 07:30:00,44.9,42.4,29.89,South,180,3.0,7.0,91,0.04,,,0.23,VWS V14.00,2013-02-07 13:30:00,
2013-02-07 07:35:00,44.9,42.4,29.89,South,180,3.0,5.0,91,0.04,,,0.23,VWS V14.00,2013-02-07 13:35:00,
2013-02-07 07:40:00,44.9,42.4,29.89,South,180,3.0,6.0,91,0.04,,,0.23,VWS V14.00,2013-02-07 13:40:00,
2013-02-07 07:45:00,44.9,42.4,29.89,SSE,158,2.0,8.0,91,0.03,,,0.23,VWS V14.00,2013-02-07 13:45:00,
2013-02-07 07:50:00,44.9,42.4,29.89,SSE,158,1.0,6.0,91,0.03,,,0.23,VWS V14.00,2013-02-07 13:50:00,
2013-02-07 07:55:00,44.9,42.7,29.89,SSE,158,2.0,6.0,92,0.04,,,0.24,VWS V14.00,2013-02-07 13:55:00,
2013-02-07 08:00:00,44.9,42.7,29.89,South,180,2.0,6.0,92,0.04,,,0.24,VWS V14.00,2013-02-07 14:00:00,
2013-02-07 08:05:00,44.9,42.7,29.89,SW,225,0.0,2.0,92,0.04,,,0.25,VWS V14.00,2013-02-07 14:05:00,
2013-02-07 08:10:00,44.9,42.7,29.89,South,180,1.0,4.0,92,0.05,,,0.26,VWS V14.00,2013-02-07 14:10:00,
2013-02-07 08:15:00,44.9,42.7,29.89,South,180,2.0,5.0,92,0.05,,,0.27,VWS V14.00,2013-02-07 14:15:00,
2013-02-07 08:20:00,44.9,42.7,29.89,South,180,0.0,0.0,92,0.06,,,0.28,VWS V14.00,2013-02-07 14:20:00,
2013-02-07 08:25:00,44.9,42.7,29.89,South,180,0.0,0.0,92,0.08,,,0.30,VWS V14.00,2013-02-07 14:25:00,
2013-02-07 08:30:00,44.9,42.7,29.89,South,180,0.0,0.0,92,0.09,,,0.31,VWS V14.00,2013-02-07 14:30:00,
2013-02-07 08:35:00,44.9,42.7,29.90,SSW,202,0.0,1.0,92,0.09,,,0.32,VWS V14.00,2013-02-07 14:35:00,
2013-02-07 08:40:00,44.9,42.7,29.90,South,180,0.0,4.0,92,0.12,,,0.35,VWS V14.00,2013-02-07 14:40:00,
2013-02-07 08:45:00,44.9,42.7,29.90,South,180,1.0,4.0,92,0.14,,,0.37,VWS V14.00,2013-02-07 14:45:00,
2013-02-07 08:50:00,45.0,43.1,29.90,South,180,2.0,5.0,93,0.16,,,0.39,VWS V14.00,2013-02-07 14:50:00,
2013-02-07 08:55:00,45.0,43.1,29.91,SSE,158,0.0,2.0,93,0.20,,,0.43,VWS V14.00,2013-02-07 14:55:00,
2013-02-07 09:00:00,45.0,43.1,29.91,South,180,0.0,4.0,93,0.23,,,0.47,VWS V14.00,2013-02-07 15:00:00,
2013-02-07 09:05:00,45.0,43.1,29.91,South,180,1.0,3.0,93,0.25,,,0.49,VWS V14.00,2013-02-07 15:05:00,
2013-02-07 09:10:00,45.1,43.2,29.91,South,180,0.0,0.0,93,0.27,,,0.52,VWS V14.00,2013-02-07 15:10:00,
2013-02-07 09:15:00,45.0,43.1,29.91,SSW,202,0.0,3.0,93,0.29,,,0.55,VWS V14.00,2013-02-07 15:15:00,
2013-02-07 09:20:00,45.0,43.1,29.92,WSW,248,1.0,5.0,93,0.30,,,0.57,VWS V14.00,2013-02-07 15:20:00,
2013-02-07 09:25:00,45.1,43.2,29.92,WSW,248,0.0,3.0,93,0.31,,,0.59,VWS V14.00,2013-02-07 15:25:00,
2013-02-07 09:30:00,45.1,43.2,29.92,WSW,248,0.0,0.0,93,0.30,,,0.60,VWS V14.00,2013-02-07 15:30:00,
2013-02-07 09:35:00,45.1,43.2,29.91,WSW,248,0.0,0.0,93,0.29,,,0.60,VWS V14.00,2013-02-07 15:35:00,
2013-02-07 09:40:00,45.2,43.3,29.92,WSW,248,0.0,0.0,93,0.28,,,0.60,VWS V14.00,2013-02-07 15:40:00,
2013-02-07 09:45:00,45.3,43.4,29.92,WSW,248,0.0,0.0,93,0.26,,,0.61,VWS V14.00,2013-02-07 15:45:00,
2013-02-07 09:50:00,45.4,43.5,29.92,WSW,248,0.0,3.0,93,0.24,,,0.61,VWS V14.00,2013-02-07 15:50:00,
2013-02-07 09:55:00,45.4,43.5,29.92,WSW,248,0.0,0.0,93,0.22,,,0.61,VWS V14.00,2013-02-07 15:55:00,
2013-02-07 10:00:00,45.5,43.6,29.92,WSW,248,0.0,0.0,93,0.19,,,0.62,VWS V14.00,2013-02-07 16:00:00,
2013-02-07 10:05:00,45.6,43.7,29.92,WSW,248,0.0,5.0,93,0.15,,,0.62,VWS V14.00,2013-02-07 16:05:00,
2013-02-07 10:10:00,45.6,43.7,29.92,WSW,248,1.0,4.0,93,0.13,,,0.62,VWS V14.00,2013-02-07 16:10:00,
2013-02-07 10:15:00,45.7,43.8,29.92,WSW,248,1.0,3.0,93,0.10,,,0.62,VWS V14.00,2013-02-07 16:15:00,
2013-02-07 10:20:00,45.8,43.9,29.92,WSW,248,0.0,4.0,93,0.07,,,0.62,VWS V14.00,2013-02-07 16:20:00,
2013-02-07 10:25:00,45.8,44.2,29.92,WSW,248,0.0,3.0,94,0.05,,,0.62,VWS V14.00,2013-02-07 16:25:00,
2013-02-07 10:30:00,45.9,44.3,29.92,WSW,248,0.0,0.0,94,0.04,,,0.63,VWS V14.00,2013-02-07 16:30:00,
2013-02-07 10:35:00,46.1,44.5,29.92,WSW,248,0.0,0.0,94,0.03,,,0.63,VWS V14.00,2013-02-07 16:35:00,
2013-02-07 10:40:00,46.2,44.6,29.92,SW,225,1.0,4.0,94,0.03,,,0.63,VWS V14.00,2013-02-07 16:40:00,
2013-02-07 10:45:00,46.3,44.7,29.92,SW,225,1.0,3.0,94,0.03,,,0.63,VWS V14.00,2013-02-07 16:45:00,
2013-02-07 10:50:00,46.4,44.8,29.92,SW,225,1.0,4.0,94,0.02,,,0.63,VWS V14.00,2013-02-07 16:50:00,
2013-02-07 10:55:00,46.6,45.0,29.92,SW,225,1.0,4.0,94,0.02,,,0.63,VWS V14.00,2013-02-07 16:55:00,
2013-02-07 11:00:00,46.7,45.1,29.92,SW,225,2.0,5.0,94,0.03,,,0.64,VWS V14.00,2013-02-07 17:00:00,
2013-02-07 11:05:00,46.8,45.2,29.92,SW,225,1.0,5.0,94,0.02,,,0.64,VWS V14.00,2013-02-07 17:05:00,
2013-02-07 11:10:00,46.8,45.2,29.92,SW,225,2.0,6.0,94,0.02,,,0.64,VWS V14.00,2013-02-07 17:10:00,
2013-02-07 11:15:00,46.8,45.2,29.92,WSW,248,3.0,8.0,94,0.02,,,0.64,VWS V14.00,2013-02-07 17:15:00,
2013-02-07 11:20:00,46.7,44.8,29.92,WSW,248,2.0,5.0,93,0.02,,,0.64,VWS V14.00,2013-02-07 17:20:00,
2013-02-07 11:25:00,46.8,45.2,29.92,WSW,248,2.0,7.0,94,0.03,,,0.65,VWS V14.00,2013-02-07 17:25:00,
2013-02-07 11:30:00,46.9,45.3,29.92,WSW,248,2.0,6.0,94,0.03,,,0.65,VWS V14.00,2013-02-07 17:30:00,
2013-02-07 11:35:00,47.0,45.4,29.92,WSW,248,2.0,8.0,94,0.03,,,0.66,VWS V14.00,2013-02-07 17:35:00,
2013-02-07 11:40:00,47.1,45.5,29.92,SW,225,3.0,9.0,94,0.03,,,0.66,VWS V14.00,2013-02-07 17:40:00,
2013-02-07 11:45:00,47.2,45.6,29.92,WSW,248,3.0,6.0,94,0.03,,,0.66,VWS V14.00,2013-02-07 17:45:00,
2013-02-07 11:50:00,47.3,45.7,29.92,WSW,248,3.0,8.0,94,0.03,,,0.66,VWS V14.00,2013-02-07 17:50:00,
2013-02-07 11:55:00,47.3,45.7,29.92,WSW,248,3.0,6.0,94,0.03,,,0.66,VWS V14.00,2013-02-07 17:55:00,
2013-02-07 12:00:00,47.3,45.7,29.91,SW,225,1.0,5.0,94,0.04,,,0.67,VWS V14.00,2013-02-07 18:00:00,
2013-02-07 12:05:00,47.3,45.7,29.91,SW,225,0.0,2.0,94,0.03,,,0.67,VWS V14.00,2013-02-07 18:05:00,
2013-02-07 12:10:00,47.5,45.9,29.91,WSW,248,0.0,4.0,94,0.03,,,0.67,VWS V14.00,2013-02-07 18:10:00,
2013-02-07 12:15:00,47.7,46.1,29.91,WSW,248,0.0,5.0,94,0.03,,,0.67,VWS V14.00,2013-02-07 18:15:00,
2013-02-07 12:20:00,48.0,46.4,29.91,West,270,2.0,9.0,94,0.03,,,0.67,VWS V14.00,2013-02-07 18:20:00,
2013-02-07 12:25:00,48.2,46.6,29.91,West,270,1.0,5.0,94,0.03,,,0.67,VWS V14.00,2013-02-07 18:25:00,
2013-02-07 12:30:00,48.3,46.7,29.91,West,270,2.0,5.0,94,0.02,,,0.67,VWS V14.00,2013-02-07 18:30:00,
2013-02-07 12:35:00,48.5,46.9,29.91,West,270,1.0,6.0,94,0.03,,,0.68,VWS V14.00,2013-02-07 18:35:00,
2013-02-07 12:40:00,48.6,47.0,29.91,West,270,2.0,6.0,94,0.02,,,0.68,VWS V14.00,2013-02-07 18:40:00,
2013-02-07 12:45:00,48.7,47.0,29.91,West,270,2.0,9.0,94,0.02,,,0.68,VWS V14.00,2013-02-07 18:45:00,
2013-02-07 12:50:00,48.8,47.2,29.91,West,270,4.0,10.0,94,0.02,,,0.68,VWS V14.00,2013-02-07 18:50:00,
2013-02-07 12:55:00,48.7,47.0,29.91,WNW,292,4.0,9.0,94,0.02,,,0.68,VWS V14.00,2013-02-07 18:55:00,
2013-02-07 13:00:00,48.7,47.0,29.91,WNW,292,1.0,4.0,94,0.02,,,0.68,VWS V14.00,2013-02-07 19:00:00,
2013-02-07 13:05:00,48.7,47.0,29.91,WNW,292,6.0,15.0,94,0.01,,,0.68,VWS V14.00,2013-02-07 19:05:00,
2013-02-07 13:10:00,48.5,46.9,29.92,NW,315,10.0,16.0,94,0.01,,,0.68,VWS V14.00,2013-02-07 19:10:00,
2013-02-07 13:15:00,48.3,46.4,29.92,NW,315,6.0,13.0,93,0.01,,,0.68,VWS V14.00,2013-02-07 19:15:00,
2013-02-07 13:20:00,48.0,46.1,29.92,NW,315,9.0,14.0,93,0.01,,,0.68,VWS V14.00,2013-02-07 19:20:00,
2013-02-07 13:25:00,47.7,45.8,29.92,NW,315,8.0,17.0,93,0.01,,,0.68,VWS V14.00,2013-02-07 19:25:00,
2013-02-07 13:30:00,47.4,45.5,29.93,NW,315,7.0,17.0,93,0.01,,,0.68,VWS V14.00,2013-02-07 19:30:00,
2013-02-07 13:35:00,47.2,45.3,29.93,WNW,292,9.0,19.0,93,0.01,,,0.68,VWS V14.00,2013-02-07 19:35:00,
2013-02-07 13:40:00,46.8,44.6,29.92,WNW,292,11.0,19.0,92,0.00,,,0.68,VWS V14.00,2013-02-07 19:40:00,
2013-02-07 13:45:00,46.3,44.1,29.92,NW,315,10.0,19.0,92,0.00,,,0.68,VWS V14.00,2013-02-07 19:45:00,
2013-02-07 13:50:00,46.1,43.9,29.92,NW,315,9.0,15.0,92,0.00,,,0.68,VWS V14.00,2013-02-07 19:50:00,
2013-02-07 13:55:00,45.8,43.6,29.92,NW,315,9.0,15.0,92,0.00,,,0.68,VWS V14.00,2013-02-07 19:55:00,
2013-02-07 14:00:00,45.6,43.4,29.91,NW,315,8.0,17.0,92,0.00,,,0.68,VWS V14.00,2013-02-07 20:00:00,
2013-02-07 14:05:00,45.6,43.4,29.91,NW,315,10.0,17.0,92,0.00,,,0.68,VWS V14.00,2013-02-07 20:05:00,
2013-02-07 14:10:00,45.7,43.8,29.91,NW,315,9.0,18.0,93,0.00,,,0.68,VWS V14.00,2013-02-07 20:10:00,
2013-02-07 14:15:00,45.9,44.0,29.92,NW,315,8.0,13.0,93,0.00,,,0.68,VWS V14.00,2013-02-07 20:15:00,
2013-02-07 14:20:00,46.3,44.4,29.92,NW,315,9.0,17.0,93,0.00,,,0.68,VWS V14.00,2013-02-07 20:20:00,
2013-02-07 14:25:00,46.4,44.5,29.92,NW,315,11.0,20.0,93,0.00,,,0.68,VWS V14.00,2013-02-07 20:25:00,
2013-02-07 14:30:00,46.5,44.3,29.92,NW,315,14.0,23.0,92,0.00,,,0.68,VWS V14.00,2013-02-07 20:30:00,
2013-02-07 14:35:00,46.7,44.5,29.92,NW,315,11.0,20.0,92,0.00,,,0.68,VWS V14.00,2013-02-07 20:35:00,
2013-02-07 14:40:00,47.0,45.1,29.93,NW,315,10.0,17.0,93,0.00,,,0.68,VWS V14.00,2013-02-07 20:40:00,
2013-02-07 14:45:00,47.3,45.4,29.92,NW,315,8.0,13.0,93,0.00,,,0.68,VWS V14.00,2013-02-07 20:45:00,
2013-02-07 14:50:00,47.9,46.0,29.93,NW,315,6.0,12.0,93,0.00,,,0.68,VWS V14.00,2013-02-07 20:50:00,
2013-02-07 14:55:00,48.2,45.4,29.93,NW,315,11.0,20.0,90,0.00,,,0.68,VWS V14.00,2013-02-07 20:55:00,
2013-02-07 15:00:00,48.1,45.3,29.93,NW,315,11.0,19.0,90,0.00,,,0.68,VWS V14.00,2013-02-07 21:00:00,
2013-02-07 15:05:00,48.1,45.3,29.93,NW,315,10.0,18.0,90,0.00,,,0.68,VWS V14.00,2013-02-07 21:05:00,
2013-02-07 15:10:00,48.1,45.3,29.93,NW,315,8.0,16.0,90,0.00,,,0.68,VWS V14.00,2013-02-07 21:10:00,
2013-02-07 15:15:00,48.2,45.4,29.93,NW,315,9.0,18.0,90,0.00,,,0.68,VWS V14.00,2013-02-07 21:15:00,
2013-02-07 15:20:00,48.2,45.4,29.94,NW,315,8.0,19.0,90,0.00,,,0.68,VWS V14.00,2013-02-07 21:20:00,
2013-02-07 15:25:00,48.2,45.1,29.94,NW,315,8.0,14.0,89,0.00,,,0.68,VWS V14.00,2013-02-07 21:25:00,
2013-02-07 15:30:00,48.2,45.1,29.94,NW,315,9.0,17.0,89,0.00,,,0.68,VWS V14.00,2013-02-07 21:30:00,
2013-02-07 15:35:00,48.2,45.1,29.94,NW,315,10.0,19.0,89,0.00,,,0.68,VWS V14.00,2013-02-07 21:35:00,
2013-02-07 15:40:00,48.1,45.0,29.94,NW,315,8.0,18.0,89,0.00,,,0.68,VWS V14.00,2013-02-07 21:40:00,
2013-02-07 15:45:00,48.1,44.7,29.94,NW,315,9.0,18.0,88,0.00,,,0.68,VWS V14.00,2013-02-07 21:45:00,
2013-02-07 15:50:00,48.1,44.7,29.94,NW,315,9.0,18.0,88,0.00,,,0.68,VWS V14.00,2013-02-07 21:50:00,
2013-02-07 15:55:00,48.0,44.3,29.95,NW,315,8.0,20.0,87,0.00,,,0.68,VWS V14.00,2013-02-07 21:55:00,
2013-02-07 16:00:00,47.9,44.2,29.95,NW,315,9.0,19.0,87,0.00,,,0.68,VWS V14.00,2013-02-07 22:00:00,
2013-02-07 16:05:00,47.8,44.1,29.95,NW,315,9.0,15.0,87,0.00,,,0.68,VWS V14.00,2013-02-07 22:05:00,
2013-02-07 16:10:00,47.9,44.5,29.96,NW,315,10.0,18.0,88,0.00,,,0.68,VWS V14.00,2013-02-07 22:10:00,
2013-02-07 16:15:00,47.8,43.8,29.96,NW,315,10.0,22.0,86,0.00,,,0.68,VWS V14.00,2013-02-07 22:15:00,
2013-02-07 16:20:00,47.6,43.6,29.97,NW,315,11.0,19.0,86,0.00,,,0.68,VWS V14.00,2013-02-07 22:20:00,
2013-02-07 16:25:00,47.3,43.0,29.98,NW,315,10.0,18.0,85,0.00,,,0.68,VWS V14.00,2013-02-07 22:25:00,
2013-02-07 16:30:00,47.1,42.8,29.98,NW,315,9.0,16.0,85,0.00,,,0.68,VWS V14.00,2013-02-07 22:30:00,
2013-02-07 16:35:00,46.9,42.9,29.98,NW,315,9.0,17.0,86,0.00,,,0.68,VWS V14.00,2013-02-07 22:35:00,
2013-02-07 16:40:00,46.9,42.9,29.98,NNW,338,11.0,20.0,86,0.00,,,0.68,VWS V14.00,2013-02-07 22:40:00,
2013-02-07 16:53:00,46.8,42.8,29.98,NW,315,9.0,15.0,86,0.00,,,0.68,VWS V14.00,2013-02-07 22:53:00,
2013-02-07 16:55:00,46.5,42.2,29.99,NW,314,7.0,13.0,85,0.00,,,0.68,VWS V14.00,2013-02-07 22:55:00,
2013-02-07 16:58:00,46.3,42.0,30.00,WNW,301,10.0,17.0,85,0.00,,,0.68,VWS V14.00,2013-02-07 22:58:00,
2013-02-07 17:03:00,46.0,41.8,30.00,WNW,297,12.0,17.0,85,0.00,,,0.68,VWS V14.00,2013-02-07 23:03:00,
2013-02-07 17:08:00,45.7,41.5,30.01,NW,313,9.0,14.0,85,0.00,,,0.68,VWS V14.00,2013-02-07 23:08:00,
2013-02-07 17:13:00,45.4,41.5,30.01,NNW,333,10.0,17.0,86,0.00,,,0.68,VWS V14.00,2013-02-07 23:13:00,
2013-02-07 17:18:00,45.1,40.9,30.01,NW,304,12.0,15.0,85,0.00,,,0.68,VWS V14.00,2013-02-07 23:18:00,
2013-02-07 17:23:00,44.8,40.6,30.02,NNW,343,12.0,19.0,85,0.00,,,0.68,VWS V14.00,2013-02-07 23:23:00,
2013-02-07 17:28:00,44.5,40.6,30.02,NW,320,14.0,21.0,86,0.00,,,0.68,VWS V14.00,2013-02-07 23:28:00,
2013-02-07 17:33:00,44.3,40.4,30.03,WNW,302,15.0,15.0,86,0.00,,,0.68,VWS V14.00,2013-02-07 23:33:00,
2013-02-07 17:38:00,44.1,40.2,30.03,NW,317,5.0,16.0,86,0.00,,,0.68,VWS V14.00,2013-02-07 23:38:00,
2013-02-07 17:43:00,43.8,39.9,30.03,NW,318,11.0,19.0,86,0.00,,,0.68,VWS V14.00,2013-02-07 23:43:00,
2013-02-07 17:48:00,43.6,39.7,30.04,NNW,338,9.0,16.0,86,0.00,,,0.68,VWS V14.00,2013-02-07 23:48:00,
2013-02-07 17:53:00,43.4,39.5,30.04,NW,315,4.0,18.0,86,0.00,,,0.68,VWS V14.00,2013-02-07 23:53:00,
2013-02-07 17:58:00,43.2,39.3,30.04,NW,322,11.0,20.0,86,0.00,,,0.68,VWS V14.00,2013-02-07 23:58:00,
2013-02-07 18:03:00,42.9,39.0,30.04,NW,325,5.0,15.0,86,0.00,,,0.68,VWS V14.00,2013-02-08 00:03:00,
2013-02-07 18:08:00,42.7,38.8,30.05,WNW,297,10.0,19.0,86,0.00,,,0.68,VWS V14.00,2013-02-08 00:08:00,
2013-02-07 18:13:00,42.4,38.5,30.06,NNW,333,9.0,21.0,86,0.00,,,0.68,VWS V14.00,2013-02-08 00:13:00,
2013-02-07 18:18:00,42.0,38.1,30.06,WNW,303,7.0,11.0,86,0.00,,,0.68,VWS V14.00,2013-02-08 00:18:00,
2013-02-07 18:23:00,41.8,37.9,30.06,North,7,7.0,15.0,86,0.00,,,0.68,VWS V14.00,2013-02-08 00:23:00,
2013-02-07 18:28:00,41.5,37.6,30.06,NNW,338,10.0,16.0,86,0.00,,,0.68,VWS V14.00,2013-02-08 00:28:00,
2013-02-07 18:33:00,41.3,37.4,30.07,NNW,343,9.0,14.0,86,0.00,,,0.68,VWS V14.00,2013-02-08 00:33:00,
2013-02-07 18:38:00,41.2,37.3,30.07,NNW,338,2.0,12.0,86,0.00,,,0.68,VWS V14.00,2013-02-08 00:38:00,
2013-02-07 18:43:00,41.1,37.5,30.07,NNW,343,7.0,12.0,87,0.00,,,0.68,VWS V14.00,2013-02-08 00:43:00,
2013-02-07 18:48:00,40.9,37.3,30.07,NW,324,6.0,11.0,87,0.00,,,0.68,VWS V14.00,2013-02-08 00:48:00,
2013-02-07 18:53:00,40.8,36.9,30.08,NW,318,12.0,18.0,86,0.00,,,0.68,VWS V14.00,2013-02-08 00:53:00,
2013-02-07 18:58:00,40.4,36.3,30.08,NNW,333,13.0,20.0,85,0.00,,,0.68,VWS V14.00,2013-02-08 00:58:00,
2013-02-07 19:03:00,40.1,36.0,30.08,NNW,327,6.0,13.0,85,0.00,,,0.68,VWS V14.00,2013-02-08 01:03:00,
2013-02-07 19:09:00,39.8,35.7,30.08,NW,322,10.0,20.0,85,0.00,,,0.68,VWS V14.00,2013-02-08 01:09:00,
2013-02-07 19:14:00,39.6,35.5,30.08,NW,310,10.0,14.0,85,0.00,,,0.68,VWS V14.00,2013-02-08 01:14:00,
2013-02-07 19:19:00,39.4,35.6,30.09,WNW,301,9.0,20.0,86,0.00,,,0.68,VWS V14.00,2013-02-08 01:19:00,
2013-02-07 19:24:00,39.2,35.4,30.09,NW,317,7.0,16.0,86,0.00,,,0.68,VWS V14.00,2013-02-08 01:24:00,
2013-02-07 19:29:00,39.0,34.9,30.09,NW,307,19.0,21.0,85,0.00,,,0.68,VWS V14.00,2013-02-08 01:29:00,
2013-02-07 19:34:00,38.8,34.7,30.09,NW,314,17.0,21.0,85,0.00,,,0.68,VWS V14.00,2013-02-08 01:34:00,
2013-02-07 19:39:00,38.6,34.5,30.09,NNW,338,10.0,18.0,85,0.00,,,0.68,VWS V14.00,2013-02-08 01:39:00,
2013-02-07 19:44:00,38.4,34.3,30.09,WNW,282,5.0,16.0,85,0.00,,,0.68,VWS V14.00,2013-02-08 01:44:00,
2013-02-07 19:49:00,38.3,34.5,30.09,NNW,338,7.0,11.0,86,0.00,,,0.68,VWS V14.00,2013-02-08 01:49:00,
2013-02-07 19:54:00,38.3,34.5,30.10,NNW,347,12.0,13.0,86,0.00,,,0.68,VWS V14.00,2013-02-08 01:54:00,
2013-02-07 19:59:00,38.2,34.4,30.10,NW,315,3.0,13.0,86,0.00,,,0.68,VWS V14.00,2013-02-08 01:59:00,
2013-02-07 20:04:00,38.1,34.3,30.10,NNW,343,7.0,15.0,86,0.00,,,0.68,VWS V14.00,2013-02-08 02:04:00,
2013-02-07 20:09:00,38.1,34.3,30.10,WNW,300,5.0,13.0,86,0.00,,,0.68,VWS V14.00,2013-02-08 02:09:00,
2013-02-07 20:14:00,38.0,34.2,30.10,NW,326,16.0,16.0,86,0.00,,,0.68,VWS V14.00,2013-02-08 02:14:00,
2013-02-07 20:19:00,38.0,34.2,30.11,NW,311,13.0,14.0,86,0.00,,,0.68,VWS V14.00,2013-02-08 02:19:00,
2013-02-07 20:24:00,37.9,34.1,30.11,NNW,333,15.0,19.0,86,0.00,,,0.68,VWS V14.00,2013-02-08 02:24:00,
2013-02-07 20:29:00,37.8,34.0,30.11,NW,311,5.0,14.0,86,0.00,,,0.68,VWS V14.00,2013-02-08 02:29:00,
2013-02-07 20:34:00,37.6,33.8,30.12,WNW,296,5.0,18.0,86,0.00,,,0.68,VWS V14.00,2013-02-08 02:34:00,
2013-02-07 20:39:00,37.5,33.7,30.12,WNW,299,10.0,15.0,86,0.00,,,0.68,VWS V14.00,2013-02-08 02:39:00,
2013-02-07 20:44:00,37.3,33.5,30.12,NW,326,14.0,20.0,86,0.00,,,0.68,VWS V14.00,2013-02-08 02:44:00,
2013-02-07 20:49:00,37.0,33.2,30.12,NW,322,4.0,13.0,86,0.00,,,0.68,VWS V14.00,2013-02-08 02:49:00,
2013-02-07 20:54:00,36.9,33.1,30.13,NNW,329,11.0,18.0,86,0.00,,,0.68,VWS V14.00,2013-02-08 02:54:00,
2013-02-07 20:59:00,36.8,33.0,30.13,NNW,343,9.0,15.0,86,0.00,,,0.68,VWS V14.00,2013-02-08 02:59:00,
2013-02-07 21:04:00,36.7,32.9,30.14,NNW,338,9.0,19.0,86,0.00,,,0.68,VWS V14.00,2013-02-08 03:04:00,
2013-02-07 21:09:00,36.6,32.8,30.14,North,349,9.0,14.0,86,0.00,,,0.68,VWS V14.00,2013-02-08 03:09:00,
2013-02-07 21:14:00,36.5,32.7,30.14,North,9,11.0,13.0,86,0.00,,,0.68,VWS V14.00,2013-02-08 03:14:00,
2013-02-07 21:19:00,36.5,32.7,30.14,North,360,15.0,18.0,86,0.00,,,0.68,VWS V14.00,2013-02-08 03:19:00,
2013-02-07 21:24:00,36.3,32.5,30.14,North,353,10.0,15.0,86,0.00,,,0.68,VWS V14.00,2013-02-08 03:24:00,
2013-02-07 21:30:00,36.2,32.4,30.15,NNW,338,7.0,13.0,86,0.00,,,0.68,VWS V14.00,2013-02-08 03:30:00,
2013-02-07 21:35:00,36.1,32.0,30.15,NNW,338,9.0,20.0,85,0.00,,,0.68,VWS V14.00,2013-02-08 03:35:00,
2013-02-07 21:40:00,36.0,32.2,30.15,NNW,338,7.0,13.0,86,0.00,,,0.68,VWS V14.00,2013-02-08 03:40:00,
2013-02-07 21:45:00,35.9,32.1,30.16,North,0,6.0,14.0,86,0.00,,,0.68,VWS V14.00,2013-02-08 03:45:00,
2013-02-07 21:50:00,35.8,32.0,30.16,NNW,338,8.0,16.0,86,0.00,,,0.68,VWS V14.00,2013-02-08 03:50:00,
2013-02-07 21:55:00,35.8,32.0,30.16,North,0,6.0,13.0,86,0.00,,,0.68,VWS V14.00,2013-02-08 03:55:00,
2013-02-07 22:00:00,35.7,31.6,30.16,North,0,7.0,15.0,85,0.00,,,0.68,VWS V14.00,2013-02-08 04:00:00,
2013-02-07 22:05:00,35.7,31.9,30.16,North,0,7.0,14.0,86,0.00,,,0.68,VWS V14.00,2013-02-08 04:05:00,
2013-02-07 22:10:00,35.6,31.5,30.16,North,0,7.0,14.0,85,0.00,,,0.68,VWS V14.00,2013-02-08 04:10:00,
2013-02-07 22:15:00,35.5,31.7,30.17,NNW,338,7.0,14.0,86,0.00,,,0.68,VWS V14.00,2013-02-08 04:15:00,
2013-02-07 22:20:00,35.4,31.4,30.17,North,0,8.0,17.0,85,0.00,,,0.68,VWS V14.00,2013-02-08 04:20:00,
2013-02-07 22:25:00,35.3,31.2,30.17,North,0,9.0,16.0,85,0.00,,,0.68,VWS V14.00,2013-02-08 04:25:00,
2013-02-07 22:30:00,35.2,30.9,30.17,North,0,10.0,21.0,84,0.00,,,0.68,VWS V14.00,2013-02-08 04:30:00,
2013-02-07 22:35:00,35.0,31.0,30.18,North,0,9.0,18.0,85,0.00,,,0.68,VWS V14.00,2013-02-08 04:35:00,
2013-02-07 22:40:00,35.0,30.7,30.18,North,0,9.0,18.0,84,0.00,,,0.68,VWS V14.00,2013-02-08 04:40:00,
2013-02-07 22:45:00,34.9,30.6,30.18,NNW,338,9.0,18.0,84,0.00,,,0.68,VWS V14.00,2013-02-08 04:45:00,
2013-02-07 22:50:00,34.9,30.9,30.18,North,0,7.0,12.0,85,0.00,,,0.68,VWS V14.00,2013-02-08 04:50:00,
2013-02-07 22:55:00,34.9,30.9,30.18,NNW,338,6.0,10.0,85,0.00,,,0.68,VWS V14.00,2013-02-08 04:55:00,
2013-02-07 23:00:00,34.9,30.9,30.19,NNW,338,8.0,16.0,85,0.00,,,0.68,VWS V14.00,2013-02-08 05:00:00,
2013-02-07 23:05:00,34.8,30.8,30.19,North,0,7.0,16.0,85,0.00,,,0.68,VWS V14.00,2013-02-08 05:05:00,
2013-02-07 23:10:00,34.8,30.8,30.19,North,0,8.0,23.0,85,0.00,,,0.68,VWS V14.00,2013-02-08 05:10:00,
2013-02-07 23:15:00,34.7,30.4,30.19,North,0,9.0,18.0,84,0.00,,,0.68,VWS V14.00,2013-02-08 05:15:00,
2013-02-07 23:20:00,34.7,30.4,30.19,North,0,8.0,13.0,84,0.00,,,0.68,VWS V14.00,2013-02-08 05:20:00,
2013-02-07 23:25:00,34.6,30.3,30.19,North,0,8.0,15.0,84,0.00,,,0.68,VWS V14.00,2013-02-08 05:25:00,
2013-02-07 23:30:00,34.6,30.6,30.20,NNW,338,6.0,12.0,85,0.00,,,0.68,VWS V14.00,2013-02-08 05:30:00,
2013-02-07 23:35:00,34.6,30.6,30.20,NW,315,4.0,10.0,85,0.00,,,0.68,VWS V14.00,2013-02-08 05:35:00,
2013-02-07 23:40:00,34.5,30.2,30.20,North,0,7.0,13.0,84,0.00,,,0.68,VWS V14.00,2013-02-08 05:40:00,
2013-02-07 23:45:00,34.5,30.5,30.20,North,0,6.0,13.0,85,0.00,,,0.68,VWS V14.00,2013-02-08 05:45:00,
2013-02-07 23:50:00,34.4,30.1,30.20,North,0,7.0,16.0,84,0.00,,,0.68,VWS V14.00,2013-02-08 05:50:00,
2013-02-07 23:55:00,34.4,30.1,30.20,NNE,22,7.0,11.0,84,0.00,,,0.68,VWS V14.00,2013-02-08 05:55:00,